User: anonymous   Login
Location: Bourg-d�Oueil
(42.8588°N, 0.4991°E)
Time: 16:48:00
(UTC+00:00)
Language:

Cosmos 1954 Rocket - Orbit

View from above orbital plane
View from above orbital plane
View from above satellite
View from above satellite

Ground track
Ground track

The orbit data is extracted from the following two-line orbital elements,

1 19257U 88053B   21264.65455396 -.00000042  00000-0 -51326-5 0  9996
2 19257  74.0463 232.9136 0019143  98.3173  74.4666 14.37530195742278
Epoch (UTC): 21 September 2021 15:42:33
Eccentricity: 0.0019143
inclination: 74.0463°
perigee height: 753 km
apogee height: 780 km
right ascension of ascending node: 232.9136°
argument of perigee: 98.3173°
revolutions per day: 14.37530195
mean anomaly at epoch: 74.4666°
orbit number at epoch: 74227

The dashed part of the orbit path shows where the satellite is in the earth's shadow,  

DLR